Location: Ajisawe
(8.4333°N, 4.3833°E)
Time: 14:34:01
(UTC+00:00)

CZ-4B R/B - Pass Details

Date: 07 June 2020
Orbit: 497 x 646 km, 97.8° (Epoch: 07 July)

Event Time Altitude Azimuth Distance (km) Brightness Sun altitude
Rises 04:08:07 0° 9° (N) 2,931 8.1 -17.7°
Reaches altitude 10° 04:10:18 10° 8° (N) 2,031 7.2 -17.2°
Maximum altitude 04:14:45 79° 283° (WNW) 659 4.0 -16.2°
Enters shadow 04:18:37 14° 196° (SSW) 1,792 6.0 -15.4°
